TimePDT,TemperatureF,Dew PointF,Humidity,Sea Level PressureIn,VisibilityMPH,Wind Direction,Wind SpeedMPH,Gust SpeedMPH,PrecipitationIn,Events,Conditions,WindDirDegrees,DateUTC
12:40 AM,57.2,55.4,94,30.01,2.5,WNW,4.6,-,N/A,,Overcast,290,2013-07-03 07:40:00
12:53 AM,55.9,55.0,97,30.03,2.0,Calm,Calm,-,N/A,,Overcast,0,2013-07-03 07:53:00
1:02 AM,55.4,55.4,100,30.01,1.5,Calm,Calm,-,N/A,,Overcast,0,2013-07-03 08:02:00
1:53 AM,55.9,55.0,97,30.01,1.5,Calm,Calm,-,N/A,,Overcast,0,2013-07-03 08:53:00
2:14 AM,57.2,55.4,94,29.98,2.5,Calm,Calm,-,N/A,,Overcast,0,2013-07-03 09:14:00
2:23 AM,57.2,55.4,94,29.99,4.0,SSE,5.8,-,N/A,,Overcast,160,2013-07-03 09:23:00
2:53 AM,57.0,55.9,96,29.99,4.0,South,4.6,-,N/A,,Overcast,170,2013-07-03 09:53:00
3:53 AM,55.9,55.0,97,29.99,5.0,SSE,3.5,-,N/A,,Overcast,150,2013-07-03 10:53:00
4:40 AM,55.4,53.6,94,29.97,2.5,Calm,Calm,-,N/A,,Overcast,0,2013-07-03 11:40:00
4:53 AM,55.9,54.0,93,29.99,2.0,Calm,Calm,-,N/A,,Overcast,0,2013-07-03 11:53:00
5:08 AM,55.4,55.4,100,29.97,4.0,Calm,Calm,-,N/A,,Overcast,0,2013-07-03 12:08:00
5:53 AM,55.9,54.0,93,29.99,2.5,Calm,Calm,-,N/A,,Overcast,0,2013-07-03 12:53:00
6:14 AM,55.4,55.4,100,29.98,1.5,Calm,Calm,-,N/A,,Overcast,0,2013-07-03 13:14:00
6:53 AM,55.0,54.0,96,30.00,1.2,NNW,3.5,-,N/A,,Overcast,330,2013-07-03 13:53:00
7:03 AM,55.4,55.4,100,29.99,0.5,North,3.5,-,N/A,Fog,Fog,350,2013-07-03 14:03:00
7:24 AM,55.4,55.4,100,29.99,0.2,Calm,Calm,-,N/A,Fog,Fog,0,2013-07-03 14:24:00
7:53 AM,55.0,55.0,100,30.02,0.2,Calm,Calm,-,N/A,Fog,Fog,0,2013-07-03 14:53:00
8:18 AM,55.4,55.4,100,30.01,0.5,Calm,Calm,-,N/A,Fog,Fog,0,2013-07-03 15:18:00
8:28 AM,55.4,55.4,100,30.00,0.2,Calm,Calm,-,N/A,Fog,Fog,0,2013-07-03 15:28:00
8:35 AM,55.4,55.4,100,30.00,0.2,Calm,Calm,-,N/A,Fog,Fog,0,2013-07-03 15:35:00
8:46 AM,55.4,55.4,100,30.00,0.8,Calm,Calm,-,N/A,,Mist,0,2013-07-03 15:46:00
8:53 AM,55.9,55.0,97,30.01,1.2,Calm,Calm,-,N/A,,Overcast,0,2013-07-03 15:53:00
9:14 AM,55.4,55.4,100,30.00,3.0,Calm,Calm,-,N/A,,Overcast,0,2013-07-03 16:14:00
9:34 AM,55.4,55.4,100,30.00,1.8,WSW,5.8,-,N/A,,Overcast,250,2013-07-03 16:34:00
9:53 AM,55.9,55.0,97,30.01,3.0,Calm,Calm,-,N/A,,Overcast,0,2013-07-03 16:53:00
10:53 AM,60.1,55.9,86,30.01,10.0,WSW,5.8,-,N/A,,Overcast,250,2013-07-03 17:53:00
11:09 AM,60.8,55.4,82,30.00,8.0,West,6.9,-,N/A,,Overcast,270,2013-07-03 18:09:00
11:33 AM,60.8,55.4,82,30.00,9.0,West,4.6,-,N/A,,Scattered Clouds,270,2013-07-03 18:33:00
11:53 AM,62.1,55.9,80,30.01,10.0,WNW,5.8,-,N/A,,Clear,300,2013-07-03 18:53:00
12:53 PM,61.0,55.9,83,30.01,10.0,NW,6.9,-,N/A,,Clear,310,2013-07-03 19:53:00
1:13 PM,59.0,55.4,88,30.00,10.0,WNW,5.8,-,N/A,,Partly Cloudy,290,2013-07-03 20:13:00
1:28 PM,60.8,55.4,82,30.01,8.0,NW,5.8,-,N/A,,Mostly Cloudy,310,2013-07-03 20:28:00
1:53 PM,61.0,55.0,81,30.02,10.0,NNW,4.6,-,N/A,,Partly Cloudy,330,2013-07-03 20:53:00
2:53 PM,60.1,54.0,80,30.03,8.0,NW,5.8,-,N/A,,Clear,320,2013-07-03 21:53:00
3:53 PM,63.0,55.9,78,30.00,8.0,NW,4.6,-,N/A,,Clear,310,2013-07-03 22:53:00
4:53 PM,62.1,55.0,78,29.99,9.0,Calm,Calm,-,N/A,,Clear,0,2013-07-03 23:53:00
5:53 PM,61.0,54.0,78,30.00,8.0,NNE,4.6,-,N/A,,Clear,20,2013-07-04 00:53:00
6:53 PM,60.1,54.0,80,30.00,7.0,NW,9.2,-,N/A,,Clear,320,2013-07-04 01:53:00
7:53 PM,57.0,53.1,87,29.99,5.0,NNW,5.8,-,N/A,,Partly Cloudy,330,2013-07-04 02:53:00
8:25 PM,57.2,53.6,88,29.98,5.0,Calm,Calm,-,N/A,,Mostly Cloudy,0,2013-07-04 03:25:00
8:34 PM,57.2,51.8,82,29.98,6.0,Calm,Calm,-,N/A,,Haze,0,2013-07-04 03:34:00
8:53 PM,57.9,53.1,84,29.99,5.0,Calm,Calm,-,N/A,,Haze,0,2013-07-04 03:53:00
9:37 PM,55.4,51.8,88,29.98,6.0,SSE,3.5,-,N/A,,Mostly Cloudy,160,2013-07-04 04:37:00
9:45 PM,55.4,53.6,94,29.98,7.0,Calm,Calm,-,N/A,,Scattered Clouds,0,2013-07-04 04:45:00
9:53 PM,55.9,53.1,90,30.00,8.0,Calm,Calm,-,N/A,,Partly Cloudy,0,2013-07-04 04:53:00
10:53 PM,55.0,52.0,89,29.99,8.0,Calm,Calm,-,N/A,,Clear,0,2013-07-04 05:53:00
11:53 PM,55.0,52.0,89,29.99,8.0,SE,3.5,-,N/A,,Clear,140,2013-07-04 06:53:00